User: anonymous   Login
Location: Unspecified
(0.0000°N, 0.0000°E)
Time: 08:52:17
(UTC+00:00)
Language:

STARLINK-30898 - Orbit

View from above orbital plane
View from above orbital plane
View from above satellite
View from above satellite

Ground track
Ground track

The orbit is defined by the following mean orbital elements,

1 58387U          26145.33809477 +.00000000 +00000-0 +30957-4 0 00001
2 58387  53.1614   4.4256 0001325  90.2967 269.8187 15.34389515    03
Epoch (UTC): 25 May 2026 08:06:51
Eccentricity: 0.0001325
inclination: 53.1614°
perigee height: 462 km
apogee height: 464 km
right ascension of ascending node: 4.4256°
argument of perigee: 90.2967°
revolutions per day: 15.34389515
mean anomaly at epoch: 269.8187°

The dashed part of the orbit path shows where the satellite is in the earth's shadow,  

DLR